TimeMDT,TemperatureF,Dew PointF,Humidity,Sea Level PressureIn,VisibilityMPH,Wind Direction,Wind SpeedMPH,Gust SpeedMPH,PrecipitationIn,Events,Conditions,WindDirDegrees,DateUTC
12:15 AM,46.4,46.4,100,30.01,0.2,NW,24.2,-,N/A,Rain,Rain,320,2013-09-18 06:15:00
12:35 AM,46.4,46.4,100,30.03,0.2,NNW,19.6,-,N/A,Rain,Rain,340,2013-09-18 06:35:00
12:55 AM,46.4,44.6,93,30.00,0.2,NNW,17.3,-,N/A,,Unknown,340,2013-09-18 06:55:00
1:15 AM,46.4,44.6,93,30.00,0.2,North,13.8,-,N/A,,Overcast,350,2013-09-18 07:15:00
1:35 AM,46.4,44.6,93,30.00,10.0,North,4.6,10.4,N/A,,Overcast,10,2013-09-18 07:35:00
1:55 AM,51.8,42.8,71,30.01,7.0,SSW,13.8,-,N/A,,Light Drizzle,200,2013-09-18 07:55:00
2:15 AM,51.8,41.0,67,30.00,10.0,SW,17.3,24.2,N/A,,Overcast,230,2013-09-18 08:15:00
2:35 AM,50.0,42.8,76,30.02,10.0,SSW,11.5,20.7,N/A,,Overcast,210,2013-09-18 08:35:00
2:55 AM,48.2,44.6,87,30.03,10.0,SSW,20.7,25.3,N/A,Rain,Light Rain,210,2013-09-18 08:55:00
3:15 AM,46.4,46.4,100,30.00,3.0,South,8.1,-,N/A,Rain,Rain,180,2013-09-18 09:15:00
3:35 AM,46.4,44.6,93,29.99,0.5,SSE,11.5,-,N/A,,Light Drizzle,160,2013-09-18 09:35:00
3:55 AM,46.4,46.4,100,30.00,0.2,SSE,15.0,-,N/A,,Unknown,150,2013-09-18 09:55:00
4:15 AM,46.4,44.6,93,29.99,0.2,SSE,12.7,25.3,N/A,Rain,Light Rain,160,2013-09-18 10:15:00
4:35 AM,46.4,44.6,93,29.98,10.0,SSE,11.5,21.9,N/A,Rain,Rain,160,2013-09-18 10:35:00
4:55 AM,48.2,44.6,87,29.95,7.0,SE,24.2,28.8,N/A,Rain,Rain,140,2013-09-18 10:55:00
5:15 AM,46.4,44.6,93,29.94,0.2,SE,18.4,26.5,N/A,,Unknown,140,2013-09-18 11:15:00
5:35 AM,46.4,44.6,93,29.94,0.2,SSE,19.6,28.8,N/A,,Unknown,150,2013-09-18 11:35:00
5:55 AM,46.4,44.6,93,29.95,0.2,SSE,18.4,27.6,N/A,,Unknown,150,2013-09-18 11:55:00
6:15 AM,46.4,44.6,93,29.95,0.2,SSE,20.7,27.6,N/A,,Unknown,150,2013-09-18 12:15:00
6:35 AM,46.4,44.6,93,29.95,0.2,SSE,21.9,33.4,N/A,,Unknown,150,2013-09-18 12:35:00
6:55 AM,44.6,44.6,100,29.95,0.2,SSE,13.8,-,N/A,,Unknown,150,2013-09-18 12:55:00
7:15 AM,44.6,44.6,100,29.95,10.0,SSE,15.0,21.9,N/A,,Scattered Clouds,150,2013-09-18 13:15:00
7:35 AM,44.6,44.6,100,29.96,0.2,SSE,15.0,-,N/A,Fog,Fog,150,2013-09-18 13:35:00
7:55 AM,46.4,44.6,93,29.97,0.2,SE,16.1,-,N/A,Fog,Fog,140,2013-09-18 13:55:00
8:15 AM,46.4,46.4,100,29.98,0.2,SE,15.0,-,N/A,Fog,Fog,140,2013-09-18 14:15:00
8:35 AM,46.4,46.4,100,29.98,0.5,SE,13.8,-,N/A,Fog,Fog,140,2013-09-18 14:35:00
8:55 AM,48.2,46.4,93,29.99,10.0,SSE,10.4,-,N/A,,Scattered Clouds,160,2013-09-18 14:55:00
9:15 AM,50.0,46.4,87,30.00,10.0,Calm,Calm,-,N/A,,Clear,0,2013-09-18 15:15:00
9:35 AM,50.0,46.4,87,30.01,10.0,NNW,6.9,-,N/A,,Scattered Clouds,340,2013-09-18 15:35:00
9:55 AM,50.0,46.4,87,30.00,10.0,North,12.7,-,N/A,,Scattered Clouds,360,2013-09-18 15:55:00
10:15 AM,50.0,46.4,87,30.01,10.0,North,9.2,-,N/A,,Mostly Cloudy,360,2013-09-18 16:15:00
10:35 AM,50.0,44.6,82,30.00,10.0,North,13.8,-,N/A,,Mostly Cloudy,360,2013-09-18 16:35:00
10:55 AM,46.4,42.8,87,30.02,10.0,NNW,11.5,-,N/A,Rain,Rain,330,2013-09-18 16:55:00
11:15 AM,50.0,44.6,82,30.01,10.0,North,6.9,-,N/A,,Mostly Cloudy,350,2013-09-18 17:15:00
11:35 AM,51.8,46.4,82,30.01,10.0,NNW,11.5,-,N/A,,Mostly Cloudy,330,2013-09-18 17:35:00
11:55 AM,51.8,46.4,82,30.01,10.0,NW,11.5,-,N/A,,Mostly Cloudy,310,2013-09-18 17:55:00
12:15 PM,50.0,46.4,87,30.01,10.0,NW,6.9,-,N/A,,Overcast,320,2013-09-18 18:15:00
12:35 PM,53.6,46.4,77,30.01,10.0,Calm,Calm,-,N/A,,Mostly Cloudy,0,2013-09-18 18:35:00
12:55 PM,53.6,44.6,72,30.01,10.0,SSE,9.2,-,N/A,,Scattered Clouds,150,2013-09-18 18:55:00
1:15 PM,55.4,42.8,63,30.01,10.0,South,16.1,20.7,N/A,,Scattered Clouds,170,2013-09-18 19:15:00
1:35 PM,59.0,41.0,51,30.01,10.0,South,15.0,24.2,N/A,,Scattered Clouds,180,2013-09-18 19:35:00
1:55 PM,57.2,42.8,59,30.02,10.0,South,12.7,19.6,N/A,,Mostly Cloudy,170,2013-09-18 19:55:00
2:15 PM,59.0,33.8,39,30.01,10.0,SSW,17.3,29.9,N/A,,Scattered Clouds,210,2013-09-18 20:15:00
2:35 PM,59.0,32.0,36,30.02,10.0,SSW,24.2,31.1,N/A,,Clear,200,2013-09-18 20:35:00
2:55 PM,59.0,30.2,34,30.01,10.0,South,18.4,27.6,N/A,,Clear,190,2013-09-18 20:55:00
3:15 PM,59.0,28.4,31,30.02,10.0,SSW,24.2,35.7,N/A,,Clear,210,2013-09-18 21:15:00
3:35 PM,59.0,26.6,29,30.02,10.0,SSW,24.2,40.3,N/A,,Clear,200,2013-09-18 21:35:00
3:55 PM,57.2,26.6,31,30.03,10.0,SW,23.0,31.1,N/A,,Clear,220,2013-09-18 21:55:00
4:15 PM,57.2,23.0,27,30.03,10.0,SW,19.6,28.8,N/A,,Clear,230,2013-09-18 22:15:00
4:35 PM,57.2,23.0,27,30.04,10.0,SW,19.6,32.2,N/A,,Clear,220,2013-09-18 22:35:00
4:55 PM,57.2,23.0,27,30.04,10.0,SW,20.7,29.9,N/A,,Clear,230,2013-09-18 22:55:00
5:15 PM,55.4,21.2,26,30.04,10.0,WSW,20.7,29.9,N/A,,Clear,240,2013-09-18 23:15:00
5:35 PM,55.4,21.2,26,30.05,10.0,SW,20.7,28.8,N/A,,Clear,230,2013-09-18 23:35:00
5:55 PM,55.4,19.4,25,30.05,10.0,WSW,28.8,34.5,N/A,,Clear,240,2013-09-18 23:55:00
6:15 PM,53.6,17.6,24,30.06,10.0,WSW,26.5,34.5,N/A,,Clear,250,2013-09-19 00:15:00
6:35 PM,53.6,23.0,30,30.07,10.0,West,16.1,25.3,N/A,,Clear,260,2013-09-19 00:35:00
6:55 PM,51.8,24.8,35,30.08,10.0,West,16.1,-,N/A,,Clear,270,2013-09-19 00:55:00
7:15 PM,51.8,24.8,35,30.09,10.0,West,18.4,-,N/A,,Clear,280,2013-09-19 01:15:00
7:35 PM,50.0,23.0,35,30.09,10.0,West,19.6,26.5,N/A,,Clear,280,2013-09-19 01:35:00
7:55 PM,50.0,26.6,40,30.10,10.0,NW,17.3,-,N/A,,Clear,310,2013-09-19 01:55:00
8:15 PM,46.4,32.0,57,30.12,10.0,WNW,12.7,18.4,N/A,,Clear,290,2013-09-19 02:15:00
8:35 PM,44.6,32.0,61,30.13,10.0,North,16.1,-,N/A,,Clear,350,2013-09-19 02:35:00
8:55 PM,44.6,33.8,66,30.14,10.0,North,17.3,-,N/A,,Clear,350,2013-09-19 02:55:00
9:15 PM,44.6,32.0,61,30.14,10.0,NNW,18.4,-,N/A,,Clear,330,2013-09-19 03:15:00
9:35 PM,44.6,32.0,61,30.14,10.0,North,15.0,-,N/A,,Clear,360,2013-09-19 03:35:00
9:55 PM,42.8,33.8,70,30.16,10.0,NNW,13.8,-,N/A,,Clear,330,2013-09-19 03:55:00
10:15 PM,42.8,33.8,70,30.16,10.0,North,13.8,18.4,N/A,,Clear,350,2013-09-19 04:15:00
10:35 PM,42.8,33.8,70,30.16,10.0,North,12.7,-,N/A,,Clear,360,2013-09-19 04:35:00
10:55 PM,41.0,33.8,76,30.17,10.0,NNW,8.1,-,N/A,,Clear,330,2013-09-19 04:55:00
11:15 PM,42.8,33.8,70,30.17,10.0,North,9.2,-,N/A,,Clear,360,2013-09-19 05:15:00
11:35 PM,42.8,32.0,66,30.17,10.0,NNE,12.7,-,N/A,,Clear,30,2013-09-19 05:35:00
11:55 PM,42.8,32.0,66,30.17,10.0,North,6.9,-,N/A,,Clear,10,2013-09-19 05:55:00